AO-07 1 07530U 74089B 17306.54590977 -.00000042 00000-0 16303-4 0 9990 2 07530 101.6513 272.5982 0012457 054.4261 055.3068 12.53629623965961 UO-11 1 14781U 84021B 17306.56053488 .00000131 00000-0 22394-4 0 9991 2 14781 097.6809 347.0540 0009964 104.4192 255.8128 14.82949683789856 LO-19 1 20442U 90005G 17306.40765764 .00000001 00000-0 16309-4 0 9996 2 20442 098.5860 241.5744 0012899 098.6034 261.6612 14.32876011451351 HUBBLE 1 20580U 90037B 17306.23292824 .00000609 00000-0 26464-4 0 9994 2 20580 028.4686 175.2616 0002648 215.2531 078.8082 15.08906712311061 MET-2/21 1 22782U 93055A 17306.50190669 .00000025 00000-0 92927-5 0 9997 2 22782 082.5471 273.8095 0023414 045.4799 093.9080 13.83803320220550 AO-27 1 22825U 93061C 17306.52239965 .00000011 00000-0 22020-4 0 9998 2 22825 098.8313 273.9290 0007429 291.0528 068.9859 14.30011847256900 IO-26 1 22826U 93061D 17306.52163760 .00000014 00000-0 23188-4 0 9997 2 22826 098.8255 273.9939 0007886 279.7159 080.3132 14.30341805257101 FO-29 1 24278U 96046B 17306.58869570 -.00000016 00000-0 22000-4 0 9999 2 24278 098.5392 171.2828 0350103 338.8629 019.8340 13.53079916047348 NOAA-15 1 25338U 98030A 17306.60035875 .00000044 00000-0 37213-4 0 9990 2 25338 098.7800 317.7753 0010883 159.9091 200.2519 14.25823649012479 GO-32 1 25397U 98043D 17306.44144130 -.00000012 00000-0 13628-4 0 9996 2 25397 098.6232 245.9396 0001084 015.2939 344.8272 14.23632528003243 ISS 1 25544U 98067A 17306.55532028 .01194349 00000-0 16441-1 0 9995 2 25544 051.6430 068.5315 0004181 073.0038 013.9979 15.54130097083277 NO-44 1 26931U 01043C 17306.61500064 -.00000014 00000-0 26339-4 0 9991 2 26931 067.0505 094.0264 0005445 260.1881 099.8606 14.30481134840071 SO-50 1 27607U 02058C 17306.55340289 .00000039 00000-0 26173-4 0 9995 2 27607 064.5562 062.7211 0037566 031.4004 328.9330 14.75384446799391 CO-55 1 27844U 03031E 17306.54464692 .00000089 00000-0 59923-4 0 9998 2 27844 098.6900 313.5406 0008940 311.6984 048.3428 14.22071555743942 CO-57 1 27848U 03031J 17306.51170418 .00000070 00000-0 51898-4 0 9992 2 27848 098.6991 313.8239 0008982 322.4755 037.5795 14.21681718743826 RS-22 1 27939U 03042A 17306.60679604 .00000164 00000-0 37938-4 0 9999 2 27939 097.9594 087.0575 0013826 142.8373 277.5638 14.66622558753463 NOAA-18 1 28654U 05018A 17306.55299080 .00000020 00000-0 36198-4 0 9997 2 28654 099.1727 332.0856 0014929 046.6457 313.5955 14.12355199641693 CO-58 1 28895U 05043F 17306.42524243 .00000197 00000-0 46622-4 0 9998 2 28895 097.8808 102.4883 0018054 068.3867 291.9257 14.63464134640478 Falconsat-3 1 30776U 07006E 17306.32272242 .00003817 00000-0 11729-3 0 9999 2 30776 035.4362 269.7233 0002596 157.5589 202.5251 15.33289847589461 CO-65 1 32785U 08021C 17306.30461283 .00000319 00000-0 40334-4 0 9991 2 32785 097.5590 324.2186 0014602 073.0842 287.1975 14.87992196515360 AAUSAT2 1 32788U 08021F 17306.60980884 .00000404 00000-0 42879-4 0 9991 2 32788 097.5462 337.2956 0012656 034.0723 326.1307 14.94080565516249 DO-64 1 32789U 08021G 17306.24164297 .00002290 00000-0 16368-3 0 9992 2 32789 097.5439 001.4873 0012318 358.1135 002.0043 15.05410761517532 CO-66 1 32791U 08021J 17306.02094190 .00000538 00000-0 60614-4 0 9992 2 32791 097.5536 328.7267 0014688 058.5506 301.7146 14.90368907515594 RS-30 1 32953U 08025A 17306.55597819 .00000012 00000-0 15862-4 0 9992 2 32953 082.5011 153.6277 0019180 345.8492 014.2048 12.43079884428612 PRISM 1 33493U 09002B 17306.50448229 .00001033 00000-0 97836-4 0 9998 2 33493 098.1488 194.6396 0015123 351.0906 009.0045 14.95912020476453 NOAA-19 1 33591U 09005A 17306.56887545 .00000101 00000-0 79971-4 0 9999 2 33591 099.1115 275.4810 0013041 241.9649 118.0203 14.12225167449924 TISAT-1 1 36799U 10035E 17306.30570833 .00000733 00000-0 80999-4 0 9991 2 36799 098.0788 071.9825 0011486 229.4292 130.5926 14.90576049396153 JUGNU 1 37839U 11058B 17306.39598066 .00000326 00000-0 31974-4 0 9997 2 37839 019.9625 332.4480 0018690 267.0249 215.9934 14.12599454313152 SRMSAT 1 37841U 11058D 17306.51462008 .00000312 00000-0 26390-4 0 9991 2 37841 019.9732 016.2564 0011851 159.8080 322.1410 14.10589501312741 AO-71 1 37854U 11061E 17306.39677839 .00003699 00000-0 20132-3 0 9993 2 37854 101.6972 250.2987 0166155 025.6833 335.2514 15.04651649327263 HRBE 1 37855U 11061F 17306.56834349 .00003397 00000-0 18214-3 0 9997 2 37855 101.7098 248.2712 0179316 032.6321 328.5821 15.03614126327118 ALMASAT-1 1 38078U 12006B 17306.49493669 .00025849 37333-5 27424-3 0 9996 2 38078 069.4312 118.5239 0280923 086.1890 277.1308 15.28918024305879 HORYU-2 1 38340U 12025D 17306.57509433 .00000291 00000-0 51014-4 0 9998 2 38340 098.3776 315.3914 0011039 206.5805 153.4838 14.75433960283283 RS-40 1 38735U 12041C 17306.53878427 .00000001 00000-0 -63747-4 0 9998 2 38735 082.4774 237.9096 0017922 085.9899 274.3228 12.42574996238858 BEESAT-3 1 39134U 13015E 17306.56250139 .00001486 00000-0 80753-4 0 9994 2 39134 064.8634 139.6187 0033924 243.2739 116.4914 15.18396915250101 BEESAT-2 1 39136U 13015G 17306.57599402 .00001317 00000-0 78569-4 0 9991 2 39136 064.8685 152.2537 0033643 262.6369 097.0932 15.15554972249851 ZACUBE-1 1 39417U 13066B 17306.55328844 .00000306 00000-0 45106-4 0 9995 2 39417 097.6148 341.9795 0059419 175.8750 184.2966 14.80806948213257 TRITON-1 1 39427U 13066M 17306.60462683 .00000278 00000-0 52856-4 0 9990 2 39427 097.6368 312.6806 0112772 265.3003 093.5317 14.67551405211157 GOMX-1 1 39430U 13066Q 17306.50920369 .00000350 00000-0 72932-4 0 9991 2 39430 097.6749 295.0687 0151072 326.7110 032.4657 14.58961302209913 LO-74 1 39440U 13066AA 17306.58818649 .00000266 00000-0 44229-4 0 9991 2 39440 097.6181 330.1320 0079970 210.3871 149.2692 14.75546387211300 AO-73 1 39444U 13066AE 17306.59880074 .00000362 00000-0 51223-4 0 9996 2 39444 097.6162 343.2553 0058680 171.9848 188.2317 14.81559865211519 SPROUT 1 39770U 14029E 17306.50682686 .00000888 00000-0 10650-3 0 9999 2 39770 097.8756 044.5659 0008013 227.9179 132.1357 14.86495703186680 DUCHIFAT-1 1 40021U 14033M 17306.30598318 .00000684 00000-0 76674-4 0 9994 2 40021 097.9140 219.6352 0012267 201.0498 159.0216 14.90073094183169 NANOSATCBR1 1 40024U 14033Q 17306.57310074 .00000547 00000-0 63558-4 0 9992 2 40024 097.9089 218.5648 0011542 201.1617 158.9124 14.89372111182625 EO-79 1 40025U 14033R 17306.56034012 .00000417 00000-0 50846-4 0 9999 2 40025 097.9063 217.3813 0011721 204.9288 155.1364 14.88550248182569 DTUSAT-2 1 40030U 14033W 17306.26463033 .00000373 00000-0 46516-4 0 9991 2 40030 097.9022 216.0533 0011288 199.9907 160.0868 14.88165880182472 EO-80 1 40032U 14033Y 17306.58181873 .00000385 00000-0 47918-4 0 9997 2 40032 097.9029 216.3744 0011261 199.4065 160.6724 14.88101964182503 ANTELSAT 1 40034U 14033AA 17306.58750007 .00000285 00000-0 50171-4 0 9994 2 40034 097.8384 186.0814 0058190 206.5997 153.2223 14.73793407180777 VELOX-1 1 40057U 14034E 17306.48242281 .00000589 00000-0 90604-4 0 9991 2 40057 098.1941 048.8310 0010598 342.4618 017.6218 14.77254569180177 DAURIA DX 1 1 40071U 14037C 17306.49553755 .00000245 00000-0 38980-4 0 9990 2 40071 098.3502 063.1612 0008016 337.6843 022.4018 14.81080687179444 UKUBE-1 1 40074U 14037F 17306.42296262 .00000566 00000-0 75761-4 0 9997 2 40074 098.3606 067.6743 0004039 343.6539 016.4541 14.83633774179678 HODOYOSHI-1 1 40299U 14070B 17306.55279384 .00001051 00000-0 48254-4 0 9990 2 40299 097.3959 027.1565 0012437 334.5576 133.1919 15.22555391165999 CHUBUSAT-1 1 40300U 14070C 17306.50292918 .00001093 00000-0 51930-4 0 9997 2 40300 097.3864 023.8187 0020030 342.2994 074.6207 15.21184682165818 QSAT-EOS 1 40301U 14070D 17306.45058046 .00002517 00000-0 10625-3 0 9991 2 40301 097.3807 024.2248 0026533 335.0833 080.7691 15.23895305165880 FIREBIRD FU3 1 40377U 15003B 17306.57740240 .00002782 00000-0 11973-3 0 9999 2 40377 099.1127 158.1899 0132994 263.6029 095.0039 15.16183472151965 FIREBIRD FU4 1 40378U 15003C 17306.56796831 .00002765 00000-0 11889-3 0 9993 2 40378 099.1130 158.2249 0133193 263.5318 095.0730 15.16197691151968 GRIFEX 1 40379U 15003D 17306.58462199 .00002407 00000-0 11053-3 0 9999 2 40379 099.1162 155.4337 0139503 272.8866 085.6402 15.13560461151803 NO-84 1 40654U 15025D 17306.32240324 .00011672 00000-0 20882-3 0 01294 2 40654 054.9967 338.1432 0167778 253.5890 104.6505 15.36487231020927 NO-83 1 40655U 15025E 17306.37135180 .00023044 00000-0 31016-3 0 01447 2 40655 054.9809 303.4293 0128774 274.6510 083.9759 15.48559871021046 DEORBITSAIL 1 40719U 15032E 17306.60840212 .00000561 00000-0 88328-4 0 9997 2 40719 097.9640 198.5180 0017769 059.3504 300.9454 14.76216182124747 NUDT-PHONESAT 1 40900U 15049B 17306.57258308 .00002793 00000-0 13160-3 0 9992 2 40900 097.4434 312.6050 0015607 100.8385 259.4608 15.20237217117471 XW-2A 1 40903U 15049E 17306.60673704 .00002403 00000-0 63135-4 0 9996 2 40903 097.4107 333.9955 0016112 123.6224 236.6561 15.39511661118933 XW-2C 1 40906U 15049H 17306.57780800 .00000929 00000-0 53378-4 0 9990 2 40906 097.4575 309.3446 0016875 094.7992 265.5167 15.14827082117182 XW-2D 1 40907U 15049J 17306.55099602 .00000988 00000-0 56357-4 0 9997 2 40907 097.4546 309.0495 0016249 093.0256 267.2836 15.14950981117189 LILACSAT-2 1 40908U 15049K 17306.55986413 .00000564 00000-0 35246-4 0 9997 2 40908 097.4652 308.6937 0017833 092.6653 267.6620 15.13293687117097 XW-2F 1 40910U 15049M 17306.59976912 .00001480 00000-0 80326-4 0 9994 2 40910 097.4561 310.0088 0017048 090.1578 270.1608 15.15967881117248 XW-2B 1 40911U 15049N 17306.56081518 .00000973 00000-0 55623-4 0 9999 2 40911 097.4587 309.5028 0016156 093.4158 266.8923 15.14905347117085 DCBB 1 40912U 15049P 17306.60192969 .00002034 00000-0 10265-3 0 9990 2 40912 097.4517 312.2420 0017471 080.6910 037.7400 15.18121301117282 TW-1C 1 40926U 15051B 17306.38555619 .00010358 00000-0 21886-3 0 9997 2 40926 097.2157 344.9676 0012093 036.0127 022.3449 15.45280252118241 TW-1A 1 40928U 15051D 17306.47221348 .00004229 00000-0 11762-3 0 9990 2 40928 097.2139 339.7887 0014107 063.9605 042.3347 15.37285635117932 IO-86 1 40931U 15052B 17304.82330553 .00000673 00000-0 46403-5 0 9992 2 40931 6.0007 338.4537 0013793 15.7322 344.3474 14.76551055113191 GomX-3 1 40949U 98067HA 16292.18357804 .08527750 12374-4 77882-3 0 9992 2 40949 51.6055 106.7696 0006699 286.1344 73.8944 16.38002265 59645 LQSat 1 40958U 15057A 17306.48669411 .00000065 00000-0 17894-4 0 9994 2 40958 097.9666 019.3042 0018102 348.2070 011.8709 14.72997111111489 AO-85 1 40967U 15058D 17306.09900933 .00000382 00000-0 61900-4 0 01350 2 40967 064.7767 160.5034 0181737 027.8949 333.1759 14.75559408020146 ATHENOXAT-1 1 41168U 15077C 17306.43458920 .00003249 00000-0 14454-3 0 9991 2 41168 014.9824 239.1306 0012314 134.8334 351.2204 15.12127393103994 ChubuSat-2 1 41338U 16012B 17306.45186557 .00000500 00000-0 32580-4 0 9994 2 41338 031.0041 314.0702 0013871 348.1329 011.8978 14.99854299093766 ChubuSat-3 1 41339U 16012C 17306.42802193 .00000547 00000-0 36100-4 0 9996 2 41339 031.0106 313.1495 0013584 353.5479 006.4971 15.00051596093748 Horyu-4 1 41340U 16012D 17306.40533845 .00000759 00000-0 51665-4 0 9999 2 41340 031.0060 309.8126 0014120 004.4862 355.5898 15.00778492093799 OUFTI-1 1 41458U 16025C 17306.54501507 .00003740 00000-0 20005-3 0 9994 2 41458 098.1687 351.9947 0172455 186.7808 173.1109 15.03842078083374 e-st@r-II 1 41459U 16025D 17306.58228631 .00001890 00000-0 10386-3 0 9998 2 41459 098.1719 351.9584 0173197 186.6322 173.2588 15.03635819083366 AAUSAT4 1 41460U 16025E 17306.48902490 .00003267 00000-0 17532-3 0 9991 2 41460 098.1615 352.0595 0165215 184.8013 175.1648 15.04748886083386 NODES 1 1 41477U 98067HX 17262.38431888 .17021661 12538-4 46079-3 0 9990 2 41477 51.6074 225.8859 0003017 249.6794 110.5489 16.45625800 77086 NODES 2 1 41478U 98067HY 17266.27255257 .13534231 12598-4 22876-3 0 9990 2 41478 51.6086 206.1528 0005980 262.1280 97.9071 16.47641774 77698 LO-87 1 41557U 16033B 17306.19049311 .00001946 00000-0 74728-4 0 9992 2 41557 097.4551 025.6828 0012729 236.2265 123.7762 15.27626890079496 NuSat2 1 41558U 16033C 17306.30417989 .00001980 00000-0 76397-4 0 9998 2 41558 097.4579 025.8652 0012200 234.2982 125.7122 15.27451433079505 Lapan A3 1 41603U 16040E 17306.47783929 .00000367 00000-0 20546-4 0 9998 2 41603 097.4460 006.6878 0012503 319.0700 137.1166 15.19451847075655 Swayam 1 41607U 16040J 17306.41199716 .00001939 00000-0 89321-4 0 9993 2 41607 097.4457 007.2573 0012851 318.0589 041.9662 15.21430055075614 Pratham 1 41783U 16059A 17306.60305998 .00000098 00000-0 28366-4 0 9997 2 41783 098.1511 006.4266 0034922 087.1240 273.3958 14.62874358058835 AlSat 1N 1 41789U 16059G 17306.40842922 .00000159 00000-0 39344-4 0 9990 2 41789 098.1521 007.0043 0029922 081.2677 279.1914 14.64094785058831 ScatSat 1 41790U 16059H 17306.55553922 .00000038 00000-0 20835-4 0 9998 2 41790 098.2939 353.0494 0019514 068.1112 292.2156 14.50846261058322 TY-1 1 41844U 16066D 17306.53131196 .00002026 00000-0 90088-4 0 9995 2 41844 097.4070 311.6405 0017574 109.7513 047.8725 15.22526381054388 CAS-2T 1 41845U 16066E 17306.53448817 .00000132 00000-0 30736-4 0 9997 2 41845 098.7714 325.4422 0366051 197.4229 161.4132 14.37820996051370 Pegasus-1 1 41846U 16066F 17306.58623015 .00000298 00000-0 56314-4 0 9991 2 41846 098.7749 325.1807 0368583 199.0527 159.6563 14.37169991051350 STARS-C 1 41895U 98067KR 17306.55584466 .00068190 00000-0 47253-3 0 9995 2 41895 051.6347 051.4085 0001634 027.0440 333.0644 15.73832787049679 Tancredo 1 1 41931U 98067KT 17290.98270503 .14164078 12479-4 76733-3 0 9998 2 41931 51.6104 115.9004 0006182 280.1451 79.8879 16.42240901 42996 TO-89 1 41932U 98067KU 17306.58554006 .00023005 00000-0 23835-3 0 9993 2 41932 051.6397 057.6982 0004387 055.3512 304.7896 15.64577202045164 AOBA-V3LOX3 1 41935U 98067KX 17306.52621887 .00026244 00000-0 26069-3 0 9992 2 41935 051.6392 057.2905 0003683 054.0911 306.0426 15.65561327045267 OSNSAT 1 41939U 98067KZ 17306.53180813 .00100283 00000-0 53818-3 0 9994 2 41939 051.6360 047.4652 0005178 018.8134 341.3058 15.79457086044658 EO-88 1 42017U 17008BX 17306.51728415 .00002145 00000-0 92487-4 0 9996 2 42017 097.4802 007.6337 0008238 096.2703 263.9473 15.23629655039549 HAVELSAT 1 42700U 98067LH 17306.57518480 .00021647 00000-0 25912-3 0 9990 2 42700 051.6392 064.3535 0004782 119.3168 240.8304 15.60893831026516 SOMP2 1 42701U 98067LJ 17306.59884331 .00022925 00000-0 27887-3 0 9997 2 42701 051.6389 064.5137 0004800 119.4160 240.7312 15.60432602026509 Columbia 1 42702U 98067LK 17306.56170684 .00068427 00000-0 59011-3 0 9995 2 42702 051.6364 061.2466 0001874 078.8903 281.2305 15.68614926026470 PHOENIX 1 42706U 98067LP 17306.58780366 .00018074 00000-0 21964-3 0 9994 2 42706 051.6388 064.4421 0000910 065.1810 294.9278 15.60638582026423 X-CubeSat 1 42707U 98067LQ 17306.58409122 .00022234 00000-0 26669-3 0 9993 2 42707 051.6376 064.4073 0000895 061.0133 299.0950 15.60829143026416 qbee 1 42708U 98067LR 17306.59082726 .00021180 00000-0 25600-3 0 9995 2 42708 051.6380 064.4529 0000942 062.6561 297.4528 15.60662353026379 ZA-AeroSat 1 42713U 98067LU 17306.58077469 .00017616 00000-0 22271-3 0 9998 2 42713 051.6388 065.1414 0002084 037.1232 322.9905 15.59615183026072 LINK 1 42714U 98067LV 17306.57051880 .00030759 00000-0 35093-3 0 9996 2 42714 051.6371 064.3119 0002027 023.1523 336.9562 15.61938027026198 UPSat 1 42716U 98067LX 17306.55921363 .00026834 00000-0 31065-3 0 9992 2 42716 051.6386 064.2473 0002987 122.1192 238.0092 15.61634317026213 SpaceCube 1 42717U 98067LY 17306.60541334 .00022653 00000-0 27465-3 0 9999 2 42717 051.6386 064.5548 0003229 121.2927 238.8382 15.60533266025451 Hoopoe 1 42718U 98067LZ 17306.58216015 .00025064 00000-0 29675-3 0 9996 2 42718 051.6386 064.3995 0003093 119.6804 240.4498 15.61090235025452 Challenger 1 42721U 98067MA 17306.54400830 .00036276 00000-0 39849-3 0 9997 2 42721 051.6372 064.1327 0005000 094.2667 265.8899 15.62821179025156 NJUST-1 1 42722U 98067MB 17306.61140467 .00018102 00000-0 23104-3 0 9998 2 42722 051.6389 065.3424 0006387 101.6251 258.5459 15.59326507025148 UNSW-EC0 1 42723U 98067MC 17306.55109673 .00024860 00000-0 29555-3 0 9990 2 42723 051.6393 064.9442 0005612 098.2947 261.8683 15.60977154025128 DUTHsat 1 42724U 98067MD 17306.56218311 .00034267 00000-0 38186-3 0 9994 2 42724 051.6382 064.2633 0004312 098.3042 261.8441 15.62483784025074 LO-90 1 42725U 98067ME 17306.53680771 .00020542 00000-0 25618-3 0 9992 2 42725 051.6390 065.5975 0005155 103.0005 257.1564 15.59850867025054 nSIGHT1 1 42726U 98067MF 17306.55580958 .00010182 00000-0 14159-3 0 9998 2 42726 051.6400 066.4789 0006145 106.4959 253.6709 15.57621401025033 QBITO 1 42728U 98067MH 17306.56929951 .00021539 00000-0 26298-3 0 9996 2 42728 051.6404 065.0762 0002600 108.5708 251.5568 15.60384215024854 Aalto-2 1 42729U 98067MJ 17306.56870795 .00022475 00000-0 27356-3 0 9994 2 42729 051.6392 065.0630 0002531 107.4176 252.7094 15.60437281024865 SUSat 1 42730U 98067MK 17306.58064179 .00020433 00000-0 25213-3 0 9991 2 42730 051.6390 065.1389 0002715 105.2445 254.8849 15.60143374024864 i-INSPIRE II 1 42731U 98067ML 17306.60348000 .00026039 00000-0 30593-3 0 9998 2 42731 051.6378 064.5276 0006226 044.4976 315.6516 15.61253910024915 PolyITAN-2-SAU 1 42732U 98067MM 17306.56198670 .00022237 00000-0 26927-3 0 9992 2 42732 051.6382 065.0026 0006293 045.7211 314.4298 15.60564535024900 SNUSAT-1 1 42733U 98067MN 17306.58064456 .00021082 00000-0 26008-3 0 9996 2 42733 051.6388 065.1304 0006418 049.1628 310.9920 15.60111405024903 ExAlta-1 1 42734U 98067MP 17306.54376640 .00027408 00000-0 32317-3 0 9992 2 42734 051.6377 064.8811 0007258 071.9571 288.2213 15.61122310024858 Aoxiang-1 1 42735U 98067MQ 17306.54161982 .00018522 00000-0 23521-3 0 9998 2 42735 051.6382 065.6223 0006920 098.1549 262.0229 15.59438689026262 BeEagleSat 1 42736U 98067MR 17306.59494325 .00019264 00000-0 24110-3 0 9993 2 42736 051.6382 065.2288 0006692 096.3598 263.8157 15.59794772024962 Atlantis 1 42737U 98067MS 17306.60892313 .00058907 00000-0 54958-3 0 9995 2 42737 051.6356 062.3018 0004048 073.3015 286.8425 15.66734191024897 CAS-4B 1 42759U 17034B 17306.33303509 .00000754 00000-0 60328-4 0 9994 2 42759 043.0184 248.4601 0006686 131.2355 005.0582 15.09082401021171 CAS-4A 1 42761U 17034D 17306.32587951 .00000788 00000-0 62320-4 0 9992 2 42761 043.0185 248.4129 0007162 131.7611 003.0858 15.09157781021167 UCLSat 1 42765U 17036A 17306.12188923 .00001732 00000-0 80721-4 0 9997 2 42765 097.4342 004.2900 0012947 146.0629 214.1438 15.21168070020771 NIUSat 1 42766U 17036B 17306.56201699 .00001413 00000-0 68903-4 0 9996 2 42766 097.4344 004.4724 0017475 132.8587 227.4119 15.19842700020103 LituanicaSAT 2 1 42768U 17036D 17306.60709583 .00002615 00000-0 12309-3 0 9991 2 42768 097.4352 004.5630 0017383 136.0880 224.1740 15.20307340020125 InflateSail 1 42770U 17036F 17245.93730135 .99999999 00000-0 73960-1 0 9995 2 42770 097.4262 306.2162 0014869 278.7167 080.9844 16.07641391010932 Aalto 1 1 42775U 17036L 17306.12539442 .00001137 00000-0 55414-4 0 9994 2 42775 097.4341 004.1354 0015579 134.6082 225.6427 15.20280865019996 URSA MAIOR 1 42776U 17036M 17306.12181980 .00001302 00000-0 62889-4 0 9993 2 42776 097.4344 004.1448 0015427 134.9029 225.3461 15.20334484019992 Max Valier Sat 1 42778U 17036P 17306.21921982 .00001470 00000-0 69758-4 0 9997 2 42778 097.4362 004.3470 0013972 139.4319 220.7960 15.20761045020000 Pegasus 1 42784U 17036V 17306.39692143 .00001708 00000-0 79972-4 0 9990 2 42784 097.4344 004.5382 0013501 145.3998 214.8119 15.21021459020030 NUDATSat 1 42787U 17036Y 17306.11854495 .00002386 00000-0 10952-3 0 9998 2 42787 097.4351 004.2989 0013141 146.4497 213.7574 15.21321335019832 SUCHAI 1 1 42788U 17036Z 17306.38682230 .00001973 00000-0 91473-4 0 9993 2 42788 097.4348 004.5500 0013207 145.2535 214.9566 15.21185726020102 SKCUBE 1 42789U 17036AA 17306.12098110 .00001845 00000-0 85717-4 0 9996 2 42789 097.4347 004.2924 0013007 145.9945 214.2127 15.21195917019982 VZLUSAT 1 1 42790U 17036AB 17306.11229152 .00002342 00000-0 10746-3 0 9991 2 42790 097.4346 004.3005 0012707 146.5319 213.6722 15.21360430019980 VENTA 1 1 42791U 17036AC 17306.24390616 .00001662 00000-0 77320-4 0 9996 2 42791 097.4343 004.4326 0012530 146.2588 213.9448 15.21277141019999 Robusta 1B 1 42792U 17036AD 17306.11000959 .00001831 00000-0 84771-4 0 9997 2 42792 097.4345 004.3022 0012527 147.0395 213.1625 15.21329314019994 D-SAT 1 42794U 17036AF 17306.10995019 .00000457 00000-0 45807-4 0 9998 2 42794 097.6263 003.9249 0126418 318.0026 041.1552 14.90686857019899 BIRD-J 1 42820U 98067MU 17306.54723847 .00019557 00000-0 25166-3 0 9993 2 42820 051.6381 066.4100 0002916 026.6828 333.4314 15.59063575018421 BIRD-G 1 42821U 98067MV 17306.55335828 .00018869 00000-0 24446-3 0 9998 2 42821 051.6381 066.4506 0002884 031.9700 328.1467 15.58909908018400 BIRD-M 1 42822U 98067MW 17306.55356157 .00019422 00000-0 25106-3 0 9997 2 42822 051.6383 066.4535 0002885 033.8059 326.3118 15.58948416018404 BIRD-B 1 42823U 98067MX 17306.55555697 .00019194 00000-0 24804-3 0 9998 2 42823 051.6390 066.4707 0005878 057.3876 302.7684 15.58953087018403 BIRD-N 1 42824U 98067MY 17306.56054055 .00019044 00000-0 24696-3 0 9995 2 42824 051.6394 066.5051 0005727 057.5851 302.5695 15.58868047018400 TechnoSat 1 42829U 17042E 17306.56221147 .00000348 00000-0 40878-4 0 9990 2 42829 097.6071 212.2415 0013058 229.7013 130.3065 14.90706909016566 Mayak 1 42830U 17042F 17306.55487739 .00001160 00000-0 12290-3 0 9991 2 42830 097.6079 212.2597 0013134 228.0561 131.9539 14.90911102016568 OBJECT MZ 1 42910U 98067MZ 17306.56559553 .00015871 00000-0 21626-3 0 9998 2 42910 051.6376 067.2736 0006863 082.6531 277.5240 15.57684898011982 OBJECT NA 1 42911U 98067NA 17306.56366585 .00016583 00000-0 22429-3 0 9993 2 42911 051.6391 067.2747 0006334 076.9490 283.2209 15.57849895011962 OBJECT NB 1 42912U 98067NB 17306.57352871 .00016269 00000-0 22231-3 0 9990 2 42912 051.6371 067.3136 0005800 090.1566 270.0091 15.57592401011986 OBJECT NC 1 42913U 98067NC 17306.60305560 .00026563 00000-0 33873-3 0 9990 2 42913 051.6382 066.7756 0004199 097.3697 262.7773 15.59098520011995 OBJECT ND 1 42914U 98067ND 17306.57776255 .00015452 00000-0 21269-3 0 9991 2 42914 051.6392 067.3649 0005731 083.5175 276.6469 15.57442536011956 QIKCOM-1 1 42983U 98067NF 17306.55493993 .00005013 00000-0 81829-4 0 9991 2 42983 051.6417 068.5234 0005020 081.2194 007.7837 15.54501179000945 /EX